Home   Weather   Baden   Past weeks
Flag for Austria

Past Weather in Baden, Lower Austria, Austria — Yesterday and Last 2 Weeks

Now
68 °F

Thunderstorms. Partly cloudy.


Feels Like: 68 °F
Forecast: 85 / 66 °F
Wind: 10 mph from Southeast

Location: Vienna Schwechat-Flughafen Airport

Current Time: Aug 25, 2019 at 12:11:21 am

Latest Report: Aug 24, 2019 at 11:20 pm


Visibility: N/A

Pressure: 30.15 "Hg

Humidity: 73%

Dew Point: 59 °F

Location of BadenLocation

Past Weather in Baden — Graph

°F

Baden Temperature Yesterday

Maximum temperature yesterday: 88 °F (at 4:20 pm)
Minimum temperature yesterday: 63 °F (at 4:50 am)
Average temperature yesterday: 74 °F

High & Low Weather Summary for the Past Weeks

 TemperatureHumidityPressure
High91 °F (Aug 10, 4:50 pm)94% (Aug 10, 4:50 am)30.33 "Hg (Aug 10, 4:50 am)
Low50 °F (Aug 15, 5:20 am)30% (Aug 18, 3:50 pm)29.86 "Hg (Aug 12, 6:20 pm)
Average72 °F63%30.07 "Hg
* Reported Aug 9 10:20 pm — Aug 24 10:50 pm, Baden. Weather by CustomWeather, © 2019

Note: Actual official high and low records may vary slightly from our data, if they occured in-between our weather recording intervals... More about our weather records

Advertising

Baden Weather History for the Previous 24 Hours

Scroll right to see more
 ConditionsComfort  
Time TempWeatherWind HumidityBarometerVisibility
10:50 pm
Sat, Aug 24
72 °FThunderstorms. Passing clouds.21 mph65%30.18 "HgN/A
10:20 pm73 °FPassing clouds.17 mph57%30.15 "HgN/A
9:50 pm72 °FMostly cloudy.21 mph69%30.15 "HgN/A
9:20 pm72 °FPassing clouds.7 mph69%30.12 "HgN/A
8:50 pm73 °FPassing clouds.6 mph65%30.12 "HgN/A
8:20 pm73 °FPassing clouds.7 mph65%30.12 "HgN/A
7:50 pm75 °FPartly sunny.9 mph61%30.12 "HgN/A
7:20 pm79 °FPartly sunny.6 mph54%30.12 "HgN/A
6:50 pm81 °FPartly sunny.6 mph54%30.12 "HgN/A
6:20 pm84 °FPartly sunny.5 mph45%30.12 "HgN/A
5:50 pm86 °FPartly sunny.8 mph43%30.12 "HgN/A
5:20 pm86 °FPartly sunny.9 mph40%30.12 "HgN/A
4:50 pm88 °FPartly sunny.9 mph38%30.12 "HgN/A
4:20 pm88 °FPartly sunny.10 mph38%30.12 "HgN/A
3:20 pm86 °FPartly sunny.10 mph43%30.12 "HgN/A
2:50 pm86 °FPartly sunny.9 mph43%30.12 "HgN/A
2:20 pm86 °FPartly sunny.8 mph43%30.15 "HgN/A
1:50 pm86 °FPartly sunny.9 mph46%30.15 "HgN/A
1:20 pm86 °FPartly sunny.8 mph46%30.15 "HgN/A
12:50 pm84 °FPartly sunny.8 mph48%30.15 "HgN/A
12:20 pm82 °FPassing clouds.6 mph55%30.18 "HgN/A
11:50 am82 °FPassing clouds.6 mph51%30.18 "HgN/A
11:20 am79 °FSunny.6 mph61%30.18 "Hg10 mi
10:50 am77 °FPassing clouds.3 mph65%30.18 "HgN/A
10:20 am77 °FSunny.3 mph65%30.21 "Hg10 mi
9:50 am75 °FSunny.2 mph65%30.21 "Hg10 mi
9:20 am73 °FSunny.2 mph69%30.21 "Hg10 mi
8:50 am72 °FSunny.2 mph73%30.21 "Hg10 mi
8:20 am70 °FSunny.2 mph78%30.21 "Hg10 mi
7:50 am68 °FSunny.2 mph83%30.21 "Hg10 mi
7:20 am66 °FSunny.2 mph83%30.21 "Hg10 mi
6:50 am63 °FSunny.2 mph94%30.18 "Hg10 mi
6:20 am63 °FSunny.2 mph94%30.18 "Hg10 mi
5:50 am63 °FClear.3 mph88%30.18 "Hg10 mi
5:20 am64 °FClear.2 mph88%30.18 "Hg10 mi
4:50 am63 °FClear.1 mph88%30.21 "Hg10 mi
4:20 am64 °FClear.1 mph83%30.21 "Hg10 mi
3:50 am64 °FPassing clouds.3 mph83%30.21 "HgN/A
3:20 am64 °FClear.2 mph88%30.21 "Hg10 mi
2:50 am66 °FClear.3 mph83%30.21 "Hg10 mi
2:20 am66 °FClear.3 mph83%30.21 "Hg10 mi
1:50 am66 °FClear.3 mph83%30.21 "Hg10 mi
1:20 am66 °FClear.3 mph83%30.21 "Hg10 mi
12:50 am70 °FClear.1 mph73%30.21 "Hg10 mi
12:20 am68 °FPassing clouds.3 mph78%30.21 "HgN/A
Weather by CustomWeather, © 2019

See weather overview